IRNSS-1A (39199 NORAD) Tracking and Keplerian Element Data

This shows tracking and keplerian element data for the satellite.

Feedback or suggestion? Click here.




ElementValue
Catalog39199
NameIRNSS-1A
Epoch Orbit1955
Epoch Day316.0002901
Epoch Year2018
RAAN106.3119
Inclination29.713
Eccentricity0.0021395
Argument of Perigee175.9623
Mean Anonmoly184.0155
Mean Motion1.0026837
Decay Rate1.12E-06
L11 39199U 13034A 18316.00029010 .00000112 00000-0 00000-0 0 9997
L22 39199 29.7130 106.3119 0021395 175.9623 184.0155 1.00268370 19550

Live tracking and technical data element details for IRNSS-1A (NORAD 39199). IRNSS-1A can be tracked NOW for your location showing map with azimuth and elevation plus other details from your city location.

Track the satellite on the map from your city or location and see movement details for azimuth, elevation, latitude, longitude, range, height, and movement on the map or in text.







IsCatalogInMostPopularTable: catalog: 39199, numindb: 109
Update: records affected: 1



GetName: 39199 IRNSS-1A

Hit Count: updated at: Wed, 14 Nov 2018 11:04:06 GMT